Lincoln, IL

11:32 AM CST on February 26, 2017 (GMT -0600)
Lincoln

Weather History for KAAA - February, 2013

Change the Weather History Date:

Wednesday, February 13, 2013

  Actual Average (KSPI) Record (KSPI)
Temperature  
Mean Temperature 39 °F -  
Max Temperature 51 °F 37 °F 69 °F (1938)
Min Temperature 27 °F 21 °F -24 °F (1905)
Degree Days  
Heating Degree Days 26    
Moisture  
Dew Point 30 °F    
Average Humidity 76    
Maximum Humidity 97    
Minimum Humidity 37    
Precipitation  
Precipitation 0.00 in - - ()
Sea Level Pressure  
Sea Level Pressure 29.82 in    
Wind  
Wind Speed 2 mph (SW)    
Max Wind Speed 10 mph    
Max Gust Speed 17 mph    
Visibility 8 miles    
Events      
Averages and records for this station are not official NWS values.
T = Trace of Precipitation, MM = Missing Value Source: NWS Daily Summary

Daily Weather History Graph

Daily Weather History Graph

Search for Another Location

Airport or City:

Trip Planner

Search our weather history database for the weather conditions in past years. The results will help you decide how hot, cold, wet, or windy it might be!

Date:

Astronomy

Feb. 13, 2013 Rise Set
Actual Time 6:52 AM CST 5:30 PM CST
Civil Twilight 6:24 AM CST 5:58 PM CST
Nautical Twilight 5:52 AM CST 6:30 PM CST
Astronomical Twilight 5:21 AM CST 7:02 PM CST
Moon 8:21 AM CST (2/13) 9:34 PM CST (2/13)
Length of Visible Light 11h 34m
Length of Day
10h 38m
Waxing Crescent, 14% of the Moon is Illuminated
Feb 13
Waxing Crescent
Feb 17
First Quarter
Feb 25
Full
Mar 4
Last Quarter
Mar 11
New

Hourly Weather History & Observations

Time (CST) Temp. Windchill Dew Point Humidity Pressure Visibility Wind Dir Wind Speed Gust Speed Precip Events Conditions
12:15 AM 28.8 °F - 27.3 °F 94% 29.94 in 5.0 mi Calm Calm - N/A   Clear
12:35 AM 27.9 °F - 26.6 °F 95% 29.93 in 5.0 mi Calm Calm - N/A   Clear
12:55 AM 29.1 °F - 28.2 °F 96% 29.93 in 3.0 mi Calm Calm - N/A   Clear
1:15 AM 28.4 °F - 27.5 °F 96% 29.92 in 3.0 mi Calm Calm - N/A   Clear
1:35 AM 29.1 °F - 28.4 °F 97% 29.92 in 4.0 mi Calm Calm - N/A   Clear
1:55 AM 29.1 °F - 28.2 °F 96% 29.91 in 4.0 mi Calm Calm - N/A   Clear
2:15 AM 29.3 °F - 28.4 °F 96% 29.90 in 5.0 mi Calm Calm - N/A   Clear
2:35 AM 29.1 °F - 28.0 °F 96% 29.90 in 4.0 mi Calm Calm - N/A   Clear
2:55 AM 29.7 °F - 28.6 °F 96% 29.89 in 4.0 mi Calm Calm - N/A   Clear
3:15 AM 30.2 °F - 29.1 °F 96% 29.88 in 5.0 mi Calm Calm - N/A   Clear
3:35 AM 30.2 °F - 29.1 °F 96% 29.88 in 5.0 mi Calm Calm - N/A   Clear
3:55 AM 30.0 °F - 28.9 °F 96% 29.87 in 5.0 mi Calm Calm - N/A   Clear
4:15 AM 30.0 °F - 28.9 °F 96% 29.86 in 4.0 mi Calm Calm - N/A   Clear
4:35 AM 30.0 °F - 28.9 °F 96% 29.86 in 5.0 mi Calm Calm - N/A   Clear
4:55 AM 29.3 °F - 28.2 °F 96% 29.86 in 5.0 mi Calm Calm - N/A   Clear
5:15 AM 29.3 °F - 28.4 °F 96% 29.85 in 5.0 mi Calm Calm - N/A   Clear
5:35 AM 29.3 °F - 28.0 °F 95% 29.84 in 5.0 mi Calm Calm - N/A   Clear
5:55 AM 28.4 °F 24.6 °F 27.3 °F 96% 29.84 in 4.0 mi South 3.5 mph - N/A   Clear
6:15 AM 28.0 °F 24.2 °F 27.0 °F 96% 29.84 in 4.0 mi SSW 3.5 mph - N/A   Clear
6:35 AM 28.9 °F 25.2 °F 27.5 °F 94% 29.84 in 5.0 mi South 3.5 mph - N/A   Clear
6:55 AM 28.8 °F 25.0 °F 27.3 °F 94% 29.84 in 4.0 mi SSW 3.5 mph - N/A   Clear
7:15 AM 29.1 °F 24.1 °F 27.9 °F 95% 29.84 in 3.0 mi SSW 4.6 mph - N/A   Clear
7:35 AM 30.6 °F 27.1 °F 29.1 °F 94% 29.84 in 4.0 mi SSW 3.5 mph - N/A   Clear
7:55 AM 31.8 °F 28.5 °F 30.0 °F 93% 29.84 in 4.0 mi SSW 3.5 mph - N/A   Clear
8:15 AM 32.9 °F 29.8 °F 30.7 °F 92% 29.84 in 5.0 mi SW 3.5 mph - N/A   Clear
8:35 AM 35.1 °F 31.0 °F 30.9 °F 85% 29.84 in 7.0 mi SSW 4.6 mph - N/A   Clear
8:55 AM 36.5 °F 32.7 °F 31.5 °F 82% 29.84 in 7.0 mi SW 4.6 mph - N/A   Clear
9:15 AM 38.5 °F 33.4 °F 31.3 °F 75% 29.84 in 7.0 mi SSW 6.9 mph - N/A   Clear
9:35 AM 40.1 °F 35.3 °F 30.7 °F 69% 29.84 in 10.0 mi SSW 6.9 mph - N/A   Clear
9:55 AM 41.0 °F 37.1 °F 30.2 °F 65% 29.83 in 10.0 mi SW 5.8 mph - N/A   Clear
10:15 AM 41.9 °F 37.5 °F 30.2 °F 63% 29.83 in 10.0 mi SW 6.9 mph - N/A   Clear
10:35 AM 43.2 °F 39.7 °F 31.1 °F 62% 29.83 in 10.0 mi SW 5.8 mph - N/A   Clear
10:55 AM 43.9 °F 40.5 °F 30.7 °F 60% 29.83 in 10.0 mi West 5.8 mph - N/A   Clear
11:15 AM 44.8 °F 43.3 °F 31.8 °F 60% 29.82 in 10.0 mi WSW 3.5 mph - N/A   Clear
11:35 AM 46.4 °F 43.5 °F 31.8 °F 57% 29.81 in 10.0 mi WSW 5.8 mph - N/A   Clear
11:55 AM 46.8 °F - 31.6 °F 56% 29.81 in 10.0 mi WSW 5.8 mph - N/A   Clear
12:15 PM 47.5 °F - 32.2 °F 55% 29.79 in 10.0 mi SW 6.9 mph - N/A   Clear
12:35 PM 48.7 °F - 33.1 °F 55% 29.78 in 10.0 mi SSW 8.1 mph - N/A   Clear
12:55 PM 48.7 °F - 32.5 °F 54% 29.78 in 10.0 mi SW 9.2 mph - N/A   Clear
1:15 PM 49.8 °F - 32.0 °F 50% 29.78 in 10.0 mi WSW 10.4 mph - N/A   Clear
1:35 PM 50.4 °F - 32.2 °F 50% 29.76 in 10.0 mi WSW 4.6 mph - N/A   Clear
1:55 PM 50.7 °F - 30.6 °F 46% 29.76 in 10.0 mi West 9.2 mph - N/A   Clear
2:15 PM 51.1 °F - 31.3 °F 47% 29.76 in 10.0 mi WSW 6.9 mph - N/A   Clear
2:35 PM 51.1 °F - 30.6 °F 45% 29.75 in 10.0 mi WSW 8.1 mph - N/A   Clear
2:55 PM 51.1 °F - 28.8 °F 42% 29.76 in 10.0 mi West 8.1 mph - N/A   Clear
3:15 PM 50.7 °F - 29.7 °F 44% 29.76 in 10.0 mi West 6.9 mph - N/A   Clear
3:35 PM 51.1 °F - 28.8 °F 42% 29.77 in 10.0 mi WNW 10.4 mph - N/A   Clear
3:55 PM 50.4 °F - 25.0 °F 37% 29.77 in 10.0 mi West 8.1 mph 17.3 mph N/A   Clear
4:15 PM 49.6 °F - 27.5 °F 42% 29.77 in 10.0 mi West 6.9 mph - N/A   Clear
4:35 PM 49.1 °F - 28.2 °F 44% 29.77 in 10.0 mi West 6.9 mph - N/A   Clear
4:55 PM 47.8 °F - 28.4 °F 47% 29.78 in 10.0 mi West 6.9 mph - N/A   Clear
5:15 PM 46.8 °F - 29.3 °F 51% 29.78 in 10.0 mi West 4.6 mph - N/A   Clear
5:35 PM 45.7 °F 43.4 °F 30.0 °F 54% 29.79 in 10.0 mi West 4.6 mph - N/A   Clear
5:55 PM 44.4 °F 42.9 °F 30.9 °F 59% 29.79 in 10.0 mi West 3.5 mph - N/A   Clear
6:15 PM 43.0 °F - 31.5 °F 64% 29.80 in 10.0 mi Calm Calm - N/A   Clear
6:35 PM 42.3 °F - 32.0 °F 67% 29.80 in 10.0 mi Calm Calm - N/A   Clear
6:55 PM 41.4 °F - 32.0 °F 69% 29.81 in 10.0 mi Calm Calm - N/A   Clear
7:15 PM 41.4 °F - 31.8 °F 69% 29.81 in 10.0 mi Calm Calm - N/A   Clear
7:35 PM 40.1 °F - 31.6 °F 72% 29.81 in 10.0 mi Calm Calm - N/A   Clear
7:55 PM 39.6 °F - 31.5 °F 73% 29.81 in 10.0 mi Calm Calm - N/A   Clear
8:15 PM 36.0 °F - 30.2 °F 80% 29.81 in 10.0 mi Calm Calm - N/A   Clear
8:35 PM 35.4 °F - 30.9 °F 84% 29.81 in 10.0 mi Calm Calm - N/A   Clear
8:55 PM 34.0 °F - 30.4 °F 87% 29.81 in 10.0 mi Calm Calm - N/A   Clear
9:15 PM 33.1 °F - 29.8 °F 88% 29.81 in 10.0 mi Calm Calm - N/A   Clear
9:35 PM 32.7 °F - 30.0 °F 90% 29.81 in 10.0 mi Calm Calm - N/A   Clear
9:55 PM 34.2 °F - 30.9 °F 88% 29.81 in 10.0 mi Calm Calm - N/A   Clear
10:15 PM 33.1 °F - 30.2 °F 89% 29.81 in 10.0 mi Calm Calm - N/A   Clear
10:35 PM 33.3 °F - 30.6 °F 90% 29.80 in 10.0 mi Calm Calm - N/A   Clear
10:55 PM 33.4 °F - 30.4 °F 89% 29.80 in 10.0 mi Calm Calm - N/A   Clear
11:15 PM 33.3 °F - 30.6 °F 90% 29.80 in 10.0 mi Calm Calm - N/A   Clear
11:35 PM 34.3 °F 30.2 °F 30.7 °F 87% 29.80 in 10.0 mi SSW 4.6 mph - N/A   Clear
11:55 PM 35.1 °F 31.0 °F 31.1 °F 85% 29.80 in 10.0 mi SSW 4.6 mph - N/A   Clear